Location: *
(28.3744°N, 81.5492°W)
Time: 14:10:57
(UTC+00:00)

H-2A R/B - Pass Details

Date: 15 June 2025
Orbit: 729 x 831 km, 98.3° (Epoch: 15 July)

Event Time Altitude Azimuth Distance (km) Brightness Sun altitude
Rises 08:11:53 0° 24° (NNE) 3,303 6.5 -24.8°
Reaches altitude 10° 08:14:28 10° 34° (NE) 2,353 5.6 -24.4°
Maximum altitude 08:19:06 33° 98° (E) 1,290 3.4 -23.7°
Enters shadow 08:22:13 17° 151° (SSE) 1,833 3.8 -23.2°
